Biloxi, MS

2:34 PM CDT on March 29, 2017 (GMT -0500)
Keesler Air Force Base

Weather History for KBIX - May, 2014

Change the Weather History Date:

Thursday, May 29, 2014

  Actual Average Record
Temperature  
Mean Temperature 74 °F -  
Max Temperature 79 °F 85 °F 94 °F (2012)
Min Temperature 69 °F 69 °F 60 °F (1961)
Cooling Degree Days 8    
Growing Degree Days 24 (Base 50)    
Moisture  
Dew Point 72 °F    
Average Humidity 93    
Maximum Humidity 100    
Minimum Humidity 78    
Precipitation  
Precipitation 1.45 in - - ()
Sea Level Pressure  
Sea Level Pressure 29.92 in    
Wind  
Wind Speed 10 mph (SE)    
Max Wind Speed 23 mph    
Max Gust Speed 33 mph    
Visibility 9 miles    
Events Fog , Rain , Thunderstorm    
Averages and records for this station are not official NWS values.
T = Trace of Precipitation, MM = Missing Value Source: NWS Daily Summary

Daily Weather History Graph

Daily Weather History Graph

Search for Another Location

Airport or City:

Trip Planner

Search our weather history database for the weather conditions in past years. The results will help you decide how hot, cold, wet, or windy it might be!

Date:

Astronomy

May. 29, 2014 Rise Set
Actual Time 5:54 AM CDT 7:51 PM CDT
Civil Twilight 5:27 AM CDT 8:18 PM CDT
Nautical Twilight 4:55 AM CDT 8:51 PM CDT
Astronomical Twilight 4:20 AM CDT 9:26 PM CDT
Moon 6:44 AM CDT 8:45 PM CDT
Length of Visible Light 14h 50m
Length of Day
13h 56m
New Moon, 1% of the Moon is Illuminated
May 29
New Moon
Jun 5
First Quarter
Jun 12
Full
Jun 19
Last Quarter
Jun 27
New

Hourly Weather History & Observations

Time (CDT) Temp. Dew Point Humidity Pressure Visibility Wind Dir Wind Speed Gust Speed Precip Events Conditions
12:34 AM 69.8 °F 69.8 °F 100% 29.96 in 7.0 mi East 9.2 mph - N/A Rain Light Rain
12:49 AM 71.6 °F 71.6 °F 100% 29.95 in 10.0 mi East 10.4 mph - N/A Rain Light Rain
12:54 AM 71.6 °F 71.6 °F 100% 29.95 in 10.0 mi East 8.1 mph - N/A Rain Light Rain
12:58 AM 70.7 °F 70.7 °F 100% 29.96 in 10.0 mi East 9.2 mph - 0.16 in Rain Light Rain
1:03 AM 71.6 °F 71.6 °F 100% 29.94 in 10.0 mi East 8.1 mph - N/A Rain Light Rain
1:08 AM 71.6 °F 71.6 °F 100% 29.94 in 10.0 mi East 8.1 mph - N/A Rain Light Rain
1:13 AM 71.6 °F 71.6 °F 100% 29.94 in 10.0 mi East 8.1 mph - N/A Rain Light Rain
1:18 AM 71.6 °F 71.6 °F 100% 29.93 in 10.0 mi East 10.4 mph - N/A Rain Light Rain
1:42 AM 69.8 °F 69.8 °F 100% 29.92 in 10.0 mi East 10.4 mph - N/A   Overcast
1:52 AM 71.6 °F 71.6 °F 100% 29.92 in 10.0 mi East 10.4 mph - N/A   Overcast
1:58 AM 70.7 °F 70.7 °F 100% 29.92 in 10.0 mi East 10.4 mph - 0.03 in   Overcast
2:58 AM 70.9 °F 70.9 °F 100% 29.91 in 10.0 mi East 10.4 mph - N/A   Mostly Cloudy
3:02 AM 71.6 °F 71.6 °F 100% 29.90 in 10.0 mi East 8.1 mph - N/A Rain Light Rain
3:58 AM 70.0 °F 70.0 °F 100% 29.91 in 10.0 mi East 10.4 mph 18.4 mph 0.03 in Rain Light Rain
4:13 AM 69.8 °F 69.8 °F 100% 29.91 in 10.0 mi ESE 9.2 mph - N/A   Clear
4:46 AM 69.8 °F 69.8 °F 100% 29.91 in 10.0 mi ESE 8.1 mph - N/A Rain Light Rain
4:58 AM 69.8 °F 69.8 °F 100% 29.93 in 10.0 mi ESE 5.8 mph - 0.02 in Rain Light Rain
5:02 AM 69.8 °F 69.8 °F 100% 29.92 in 10.0 mi ESE 8.1 mph - N/A   Mostly Cloudy
5:28 AM 69.8 °F 69.8 °F 100% 29.94 in 10.0 mi ESE 5.8 mph - N/A Rain Light Rain
5:33 AM 69.8 °F 69.8 °F 100% 29.94 in 10.0 mi ESE 3.5 mph - N/A Rain Light Rain
5:38 AM 69.8 °F 69.8 °F 100% 29.94 in 9.0 mi SE 5.8 mph - N/A Rain Light Rain
5:43 AM 71.6 °F 71.6 °F 100% 29.94 in 7.0 mi Variable 5.8 mph - N/A Rain Light Rain
5:48 AM 71.6 °F 71.6 °F 100% 29.93 in 6.0 mi SE 9.2 mph - N/A Rain Light Rain
5:53 AM 71.6 °F 71.6 °F 100% 29.93 in 4.0 mi SSE 10.4 mph - N/A Rain Light Rain
5:58 AM 72.0 °F 72.0 °F 100% 29.94 in 4.0 mi SSE 10.4 mph - 0.08 in Rain Light Rain
6:03 AM 71.6 °F 71.6 °F 100% 29.93 in 6.0 mi SSE 9.2 mph - N/A Rain Light Rain
6:58 AM 72.5 °F 71.2 °F 96% 29.95 in 8.0 mi South 9.2 mph - 0.04 in Rain Light Rain
7:43 AM 73.4 °F 71.6 °F 94% 29.93 in 10.0 mi SSE 12.7 mph 18.4 mph N/A Rain Light Rain
7:46 AM 73.4 °F 71.6 °F 94% 29.93 in 10.0 mi SSE 12.7 mph 18.4 mph N/A   Mostly Cloudy
7:51 AM 73.4 °F 71.6 °F 94% 29.93 in 10.0 mi SE 10.4 mph - N/A   Scattered Clouds
7:58 AM 72.9 °F 71.1 °F 94% 29.94 in 10.0 mi SSE 9.2 mph - 0.02 in   Scattered Clouds
8:58 AM 73.9 °F 71.2 °F 91% 29.94 in 10.0 mi SE 10.4 mph - N/A   Mostly Cloudy
9:58 AM 74.8 °F 70.2 °F 85% 29.95 in 10.0 mi ESE 10.4 mph - N/A   Mostly Cloudy
10:28 AM 77.0 °F 69.8 °F 78% 29.94 in 10.0 mi ESE 16.1 mph 25.3 mph N/A   Mostly Cloudy
10:33 AM 77.0 °F 69.8 °F 78% 29.94 in 10.0 mi ESE 15.0 mph 25.3 mph N/A   Mostly Cloudy
10:58 AM 77.0 °F 70.9 °F 81% 29.95 in 10.0 mi ESE 12.7 mph 19.6 mph 0.01 in   Scattered Clouds
11:58 AM 77.0 °F 71.6 °F 83% 29.95 in 10.0 mi SE 15.0 mph 21.9 mph N/A   Mostly Cloudy
11:59 AM 77.0 °F 71.6 °F 83% 29.94 in 9.0 mi SE 13.8 mph 21.9 mph N/A Rain Light Rain
12:22 PM 75.2 °F 71.6 °F 89% 29.92 in 10.0 mi East 9.2 mph - N/A   Mostly Cloudy
12:58 PM 78.6 °F 71.2 °F 78% 29.92 in 10.0 mi ESE 17.3 mph 23.0 mph 0.01 in   Overcast
1:47 PM 77.0 °F 71.6 °F 83% 29.92 in 10.0 mi ESE 11.5 mph 21.9 mph N/A Rain Light Rain
1:58 PM 76.3 °F 72.0 °F 86% 29.92 in 9.0 mi SE 15.0 mph 23.0 mph 0.00 in Rain Light Rain
2:35 PM 75.2 °F 73.4 °F 94% 29.90 in 10.0 mi ESE 9.2 mph 21.9 mph N/A Thunderstorm Mostly Cloudy
2:58 PM 75.0 °F 71.4 °F 89% 29.90 in 10.0 mi ESE 12.7 mph 20.7 mph 0.04 in   Scattered Clouds
3:17 PM 75.2 °F 71.6 °F 89% 29.90 in 10.0 mi ESE 11.5 mph 20.7 mph N/A Thunderstorm Thunderstorm
3:18 PM 75.2 °F 71.6 °F 89% 29.90 in 10.0 mi ESE 12.7 mph 20.7 mph N/A Thunderstorm Thunderstorm
3:28 PM 75.2 °F 69.8 °F 83% 29.92 in 10.0 mi SE 13.8 mph 18.4 mph N/A Rain , Thunderstorm Light Thunderstorms and Rain
3:30 PM 75.2 °F 71.6 °F 89% 29.94 in 1.0 mi South 18.4 mph 24.2 mph N/A Rain , Thunderstorm Light Thunderstorms and Rain
3:35 PM 73.4 °F 69.8 °F 88% 29.95 in 0.8 mi South 23.0 mph 33.4 mph N/A Rain , Thunderstorm Heavy Thunderstorms and Rain
3:40 PM 69.8 °F 68.0 °F 94% 29.93 in 0.5 mi South 5.8 mph 33.4 mph N/A Fog , Rain , Thunderstorm Heavy Thunderstorms and Rain
3:54 PM 69.8 °F 68.0 °F 94% 29.92 in 3.0 mi SSE 9.2 mph 23.0 mph N/A Fog , Rain , Thunderstorm Light Thunderstorms and Rain
3:58 PM 71.6 °F 69.8 °F 94% 29.93 in 3.0 mi South 17.3 mph 24.2 mph 0.90 in Rain , Thunderstorm Light Thunderstorms and Rain
4:01 PM 71.6 °F 69.8 °F 94% 29.92 in 4.0 mi SE 16.1 mph 24.2 mph N/A Rain , Thunderstorm Light Thunderstorms and Rain
4:24 PM 71.6 °F 71.6 °F 100% 29.92 in 5.0 mi East 8.1 mph - N/A Rain Light Rain
4:29 PM 71.6 °F 71.6 °F 100% 29.91 in 3.0 mi East 10.4 mph - N/A Rain Rain
4:39 PM 73.4 °F 73.4 °F 100% 29.91 in 8.0 mi ESE 13.8 mph 19.6 mph N/A Rain Light Rain
4:44 PM 73.4 °F 73.4 °F 100% 29.91 in 10.0 mi ESE 8.1 mph 18.4 mph N/A Rain Light Rain
4:45 PM 73.4 °F 73.4 °F 100% 29.91 in 10.0 mi ESE 8.1 mph 18.4 mph N/A   Mostly Cloudy
4:50 PM 73.4 °F 73.4 °F 100% 29.91 in 10.0 mi ESE 10.4 mph 18.4 mph N/A   Mostly Cloudy
4:55 PM 73.4 °F 71.6 °F 94% 29.91 in 10.0 mi ESE 8.1 mph - N/A   Mostly Cloudy
4:58 PM 73.8 °F 72.5 °F 96% 29.92 in 10.0 mi ESE 9.2 mph - 0.09 in   Scattered Clouds
5:18 PM 75.2 °F 73.4 °F 94% 29.90 in 10.0 mi ESE 9.2 mph 17.3 mph N/A Thunderstorm Mostly Cloudy
5:23 PM 75.2 °F 73.4 °F 94% 29.90 in 10.0 mi ESE 10.4 mph 17.3 mph N/A Thunderstorm Mostly Cloudy
5:33 PM 75.2 °F 73.4 °F 94% 29.90 in 8.0 mi ESE 8.1 mph - N/A   Overcast
5:34 PM 75.2 °F 73.4 °F 94% 29.90 in 8.0 mi ESE 9.2 mph - N/A Rain Light Rain
5:39 PM 75.2 °F 73.4 °F 94% 29.90 in 7.0 mi ESE 6.9 mph - N/A Rain Rain
5:44 PM 75.2 °F 73.4 °F 94% 29.89 in 9.0 mi ESE 9.2 mph - N/A Rain Light Rain
5:45 PM 75.2 °F 73.4 °F 94% 29.89 in 10.0 mi ESE 8.1 mph - N/A   Overcast
5:55 PM 75.2 °F 73.4 °F 94% 29.89 in 10.0 mi SE 10.4 mph 18.4 mph N/A   Overcast
5:58 PM 75.9 °F 73.6 °F 92% 29.90 in 10.0 mi SE 9.2 mph 18.4 mph 0.02 in   Overcast
6:38 PM 77.0 °F 73.4 °F 89% 29.88 in 10.0 mi SE 9.2 mph - N/A   Mostly Cloudy
6:58 PM 76.8 °F 72.5 °F 86% 29.89 in 10.0 mi SSE 9.2 mph - N/A   Clear
7:23 PM 77.0 °F 73.4 °F 89% 29.88 in 10.0 mi SE 10.4 mph 17.3 mph N/A   Mostly Cloudy
7:58 PM 76.1 °F 72.3 °F 88% 29.90 in 10.0 mi SE 8.1 mph 18.4 mph N/A   Overcast
8:08 PM 75.2 °F 71.6 °F 89% 29.89 in 10.0 mi SE 10.4 mph 17.3 mph N/A   Mostly Cloudy
8:13 PM 75.2 °F 71.6 °F 89% 29.89 in 10.0 mi SE 12.7 mph - N/A   Scattered Clouds
8:28 PM 77.0 °F 71.6 °F 83% 29.90 in 10.0 mi SE 10.4 mph - N/A   Mostly Cloudy
8:33 PM 77.0 °F 71.6 °F 83% 29.90 in 10.0 mi SE 10.4 mph - N/A   Mostly Cloudy
8:38 PM 77.0 °F 73.4 °F 89% 29.90 in 10.0 mi SE 13.8 mph 18.4 mph N/A   Overcast
8:58 PM 76.6 °F 72.3 °F 86% 29.91 in 10.0 mi SSE 11.5 mph 19.6 mph N/A   Overcast
9:13 PM 77.0 °F 71.6 °F 83% 29.91 in 10.0 mi SE 9.2 mph - N/A   Overcast
9:18 PM 77.0 °F 71.6 °F 83% 29.91 in 10.0 mi SE 11.5 mph 17.3 mph N/A   Overcast
9:28 PM 77.0 °F 71.6 °F 83% 29.91 in 10.0 mi SE 10.4 mph - N/A Thunderstorm Overcast
9:43 PM 77.0 °F 73.4 °F 89% 29.92 in 10.0 mi SSE 15.0 mph 20.7 mph N/A Thunderstorm Overcast
11:58 PM 76.8 °F 72.0 °F 85% 29.94 in 10.0 mi SSE 6.9 mph - N/A   Overcast